Regional Weather Roundup
Issued by NWS Newport/Morehead, NC

Current Version | Previous Version | Graphics & Text | Print | Product List | Glossary Off
Versions: 1 2 3 4 5 6 7 8 9 10 11 12 13 14 15 16 17 18 19 20 21 22 23 24 25 26 27 28 29 30 31 32 33 34 35 36 37 38 39 40 41 42 43 44 45 46 47 48 49 50

000
ASUS42 KMHX 270325
RWRMHX
WEATHER ROUNDUP FOR EASTERN NORTH CAROLINA
NATIONAL WEATHER SERVICE NEWPORT/MOREHEAD CITY NC
1100 PM EDT SUN MAR 26 2017

NOTE: "FAIR" INDICATES FEW OR NO CLOUDS BELOW 12,000 FEET
WITH NO SIGNIFICANT WEATHER AND/OR OBSTRUCTIONS TO VISIBILITY

NCZ015>017-031-032-045>047-102-103-270400-
NORTH COAST

CITY           SKY/WX    TMP DP  RH WIND       PRES   REMARKS
EDENTON        CLEAR     62  55  77 S7        30.22S
ELIZABETH CITY CLEAR     55  52  89 SE5       30.22S
KITTY HAWK     NOT AVBL
MANTEO         PTCLDY    57  54  88 SE7       30.23S

$$

NCZ045>047-081-094-103-104-270400-
CENTRAL COAST

CITY           SKY/WX    TMP DP  RH WIND       PRES   REMARKS
FRISCO         PTCLDY    66  55  67 S8        30.22F

$$

NCZ095-097-098-100-101-270400-
SOUTHERN COAST

CITY           SKY/WX    TMP DP  RH WIND       PRES   REMARKS
BEAUFORT       CLEAR     66  57  72 SE7       30.21S
CEDAR ISLAND   NOT AVBL
JACKSONVILLE   CLEAR     59  57  93 SE6       30.19F
PINEY ISLAND   PTCLDY   N/A N/A N/A S5        30.22S
WILMINGTON     CLEAR     59  56  89 CALM      30.19F


$$

NCZ011>013-027>030-043-044-078>080-089-090>093-098-270400-
COASTAL PLAIN

CITY           SKY/WX    TMP DP  RH WIND       PRES   REMARKS
AHOSKIE          N/A     62  55  78 S5        30.20R
CLINTON        PTCLDY    62  56  80 CALM      30.20S
ELIZABETHTOWN  CLEAR     61  56  83 CALM      30.19S
GOLDSBORO      CLEAR     63  55  75 SE3       30.18S
GREENVILLE     CLEAR     63  55  77 S6        30.21S
HAVELOCK       CLEAR     63  56  78 SE8       30.22S
KENANSVILLE    CLEAR     57  52  82 CALM      30.20F
KINSTON        CLEAR     61  54  75 CALM      30.21R
NEW BERN       CLEAR     56  54  93 CALM      30.22S
RICHLANDS      CLEAR     55  52  89 CALM      30.21S
ROCKY MOUNT    CLEAR     63  54  72 S5        30.19R
WASHINGTON     CLEAR     62  56  79 SE6       30.21S
WHITEVILLE     CLEAR     62  56  80 CALM      30.19S

$$

AMZ130-135-150-152-154-156-158-170-250-252-270-ANZ085-086-088-633-658-670-270400-
MARINE OBSERVATIONS

STATION/POSITION TIME  TEMP    WIND        PRES    WAVE   SWELL
                       AIR SEA DIR/SP/G            HT/PER HT/PER
                 (UTC) (F)     (DEG/KT/KT) (MB)    (FT/S) (FT/S)
CHESAPEAKE LIGHT NOT AVBL
64 E VA BEACH    0250   56 51  110/ 12/ 12 1023.3    4/ 7   3/ 7
DUCK             0300   54 47  140/ 12/ 13 1022.7
2 E DUCK         0300      50                N/A     3/ 6   2/18
OREGON INLET     0300   56 60   90/  5/  6 1023.5
13E OREGON INLT  0248      51                N/A     3/10   3/10
HATTERAS CG      0300   66 61  150/  9/ 13 1023.1
DIAMOND BUOY     0250   69 76  160/ 14/ 16 1023.6    4/ 9   3/ 9
CAPE LOOKOUT     0300   67     140/ 11/ 11 1022.9
BEAUFORT LAB     0300   65 58  150/  5/  6 1022.2
30 SE NEW RVR IN 0308   66     160/  6/ 10 1023.1
30 SE NEW RVR IN 0243      64                N/A     3/ 8   2/11
27 SE WRIGHTSVLE 0308   67 63  190/ 10/ 12 1021.8
5 SE WRIGHTSVLE  0308   63 60  160/  6/ 10 1022.2
225 S CAPE HAT   0250   69 72   90/ 10/ 14 1023.6    5/10   5/10
41 SE CHARLESTON 0250   72 74  140/ 14/ 16 1021.3    4/ 9   3/ 9

$$



USA.gov is the U.S. government's official web portal to all federal, state and local government web resources and services.